Probability
0 10 87 94 97 97 97 94 90 90 90 84 84 81 81 81 81 77 71 61 52 52 45 42 42 32 29 19 16 13 6 6 3 0 0 0 0 0 0 0 0 0 0
0 19 90 94 90 94 97 94 90 87 87 84 84 81 81 81 77 74 65 52 48 42 42 42 32 26 19 13 13 10 0 0 0 0 0 0 0 0 0 0 0 0 0
6 39 87 87 84 87 90 90 90 87 87 84 84 84 84 77 77 68 55 52 48 42 42 35 32 19 13 13 10 3 0 0 0 0 0 0 0 0 0 0 0 0 0
10 48 74 81 84 84 84 87 87 90 87 84 84 84 81 77 74 65 52 52 45 39 39 32 23 16 13 10 3 0 0 0 0 0 0 0 0 0 0 0 0 0 0
19 39 71 81 81 84 81 84 87 87 87 84 84 84 77 74 71 61 52 48 42 39 32 32 19 13 10 3 3 0 0 0 0 0 0 0 0 0 0 0 0 0 0
23 39 55 77 77 81 81 81 84 87 84 84 84 84 74 74 68 61 58 52 39 32 29 19 13 13 3 3 3 0 0 0 0 0 0 0 0 0 0 0 0 0 0
19 19 48 71 74 74 74 77 81 81 84 81 84 81 77 71 61 61 58 48 35 32 23 19 13 10 3 3 0 0 0 0 0 0 0 0 0 0 0 0 0 0 0
16 19 39 65 68 65 71 74 77 77 81 81 81 77 74 68 61 58 52 39 32 29 19 10 10 6 3 3 0 0 0 0 0 0 0 0 0 0 0 0 0 0 0
19 19 29 42 61 61 61 65 71 74 74 71 77 71 65 65 55 55 45 39 29 26 19 10 10 6 3 3 0 0 0 0 0 0 0 0 0 0 0 0 0 0 0
13 19 26 32 39 48 52 58 58 58 58 65 55 58 48 48 48 55 42 32 26 23 10 10 6 6 0 0 0 0 0 0 0 0 0 0 0 0 0 0 0 0 0
16 19 19 23 23 29 42 42 48 39 39 39 35 19 23 26 26 26 16 19 19 13 6 10 6 0 0 0 0 0 0 0 0 0 0 0 0 0 0 0 0 0 0
16 16 19 19 13 23 26 23 23 26 19 19 19 13 13 3 10 6 3 10 6 6 6 3 3 0 0 0 0 0 0 0 0 0 0 0 0 0 0 0 0 0 0
16 16 19 19 13 13 13 16 16 13 16 16 13 10 3 0 0 3 3 3 3 0 0 0 0 0 0 0 0 0 0 0 0 0 0 0 0 0 0 0 0 0 0
10 16 16 16 13 10 13 13 6 13 6 10 0 3 0 0 0 3 3 3 3 0 0 0 0 0 0 0 0 0 0 0 0 0 0 0 0 0 0 0 0 0 0
6 13 16 13 10 10 10 6 3 6 6 0 0 0 0 0 0 0 3 3 3 0 0 0 0 0 0 0 0 0 0 0 0 0 0 0 0 0 0 0 0 0 0
6 10 13 13 6 6 6 6 3 3 3 0 0 0 0 0 0 0 0 0 0 0 0 0 0 0 0 0 0 0 0 0 0 0 0 0 0 0 0 0 0 0 0
3 3 10 13 6 3 0 3 3 0 0 0 0 0 0 0 0 0 0 0 0 0 0 0 0 0 0 0 0 0 0 0 0 0 0 0 0 0 0 0 0 0 0
3 3 3 10 3 3 0 3 0 0 0 0 0 0 0 0 0 0 0 0 0 0 0 0 0 0 0 0 0 0 0 0 0 0 0 0 0 0 0 0 0 0 0
3 3 3 6 3 3 0 0 0 0 0 0 0 0 0 0 0 0 0 0 0 0 0 0 0 0 0 0 0 0 0 0 0 0 0 0 0 0 0 0 0 0 0
0 3 3 3 3 3 0 0 0 0 0 0 0 0 0 0 0 0 0 0 0 0 0 0 0 0 0 0 0 0 0 0 0 0 0 0 0 0 0 0 0 0 0
0 0 3 3 3 3 0 0 0 0 0 0 0 0 0 0 0 0 0 0 0 0 0 0 0 0 0 0 0 0 0 0 0 0 0 0 0 0 0 0 0 0 0
0 0 0 0 6 0 0 0 0 0 0 0 0 0 0 0 0 0 0 0 0 0 0 0 0 0 0 0 0 0 0 0 0 0 0 0 0 0 0 0 0 0 0
0 0 0 3 6 0 0 0 0 0 0 0 0 0 0 0 0 0 0 0 0 0 0 0 0 0 0 0 0 0 0 0 0 0 0 0 0 0 0 0 0 0 0
0 0 0 3 3 0 0 0 0 0 0 0 0 0 0 0 0 0 0 0 0 0 0 0 0 0 0 0 0 0 0 0 0 0 0 0 0 0 0 0 0 0 0
0 0 0 0 0 0 0 0 0 0 0 0 0 0 0 0 0 0 0 0 0 0 0 0 0 0 0 0 0 0 0 0 0 0 0 0 0 0 0 0 0 0 0
0 0 0 0 0 0 0 0 0 0 0 0 0 0 0 0 0 0 0 0 0 0 0 0 0 0 0 0 0 0 0 0 0 0 0 0 0 0 0 0 0 0 0
Height
5849 5850 5851 5852 5853 5855 5856 5858 5859 5860 5862 5863 5865 5866 5868 5869 5870 5871 5872 5873 5873 5874 5874 5874 5875 5875 5875 5875 5874 5874 5874 5873 5873 5872 5871 5870 5869 5868 5867 5866 5865 5864 5862
5844 5846 5847 5848 5850 5851 5852 5854 5856 5857 5859 5860 5862 5863 5865 5866 5867 5869 5870 5871 5872 5872 5873 5873 5873 5873 5873 5874 5874 5873 5873 5873 5872 5871 5871 5870 5869 5868 5867 5866 5864 5863 5861
5839 5841 5842 5844 5845 5847 5848 5850 5852 5853 5855 5857 5858 5860 5861 5863 5865 5866 5867 5868 5869 5870 5871 5871 5871 5872 5872 5872 5872 5872 5872 5872 5871 5870 5870 5869 5868 5867 5866 5865 5863 5862 5860
5834 5835 5837 5839 5840 5842 5844 5845 5847 5849 5851 5853 5854 5856 5858 5859 5861 5863 5864 5865 5866 5867 5868 5869 5869 5870 5870 5871 5871 5871 5870 5870 5870 5869 5868 5868 5867 5866 5864 5863 5862 5861 5859
5828 5829 5831 5833 5835 5836 5838 5840 5842 5844 5846 5848 5850 5852 5854 5855 5857 5859 5860 5862 5863 5864 5865 5866 5867 5867 5868 5869 5869 5869 5869 5868 5868 5867 5867 5866 5865 5864 5863 5862 5860 5859 5857
5821 5823 5824 5826 5828 5830 5832 5834 5837 5839 5841 5843 5845 5847 5849 5851 5853 5855 5856 5858 5860 5861 5862 5863 5864 5865 5866 5866 5866 5867 5866 5866 5866 5865 5865 5864 5863 5862 5861 5860 5859 5857 5855
5812 5815 5817 5819 5821 5823 5825 5828 5830 5833 5835 5837 5840 5842 5844 5846 5848 5850 5852 5854 5856 5857 5858 5860 5861 5862 5863 5863 5864 5864 5864 5864 5863 5863 5862 5862 5861 5860 5859 5858 5856 5855 5853
5803 5806 5808 5811 5813 5815 5817 5820 5823 5826 5828 5831 5834 5836 5838 5840 5842 5845 5847 5849 5851 5853 5855 5856 5857 5858 5859 5860 5861 5861 5861 5861 5861 5860 5860 5859 5858 5858 5856 5855 5854 5852 5851
5792 5795 5798 5801 5804 5806 5809 5812 5815 5818 5821 5824 5827 5829 5832 5835 5837 5839 5841 5844 5846 5848 5850 5852 5853 5855 5856 5857 5858 5858 5858 5858 5858 5857 5857 5856 5856 5855 5854 5852 5851 5850 5848
5780 5783 5787 5791 5794 5797 5800 5803 5806 5810 5813 5816 5819 5822 5825 5828 5831 5833 5836 5838 5840 5843 5845 5847 5849 5850 5852 5853 5854 5854 5855 5855 5854 5854 5854 5853 5852 5852 5851 5849 5848 5847 5845
5766 5770 5774 5779 5782 5786 5789 5793 5796 5800 5804 5807 5810 5814 5817 5820 5824 5827 5829 5832 5835 5837 5839 5842 5844 5845 5847 5848 5849 5850 5851 5851 5851 5851 5850 5850 5849 5848 5847 5846 5845 5843 5841
5753 5756 5760 5765 5770 5774 5777 5782 5786 5789 5794 5798 5801 5805 5809 5812 5816 5819 5823 5825 5828 5831 5833 5836 5838 5840 5842 5844 5845 5846 5846 5847 5847 5847 5846 5846 5845 5844 5843 5842 5841 5839 5838
5738 5741 5745 5750 5755 5760 5764 5769 5774 5778 5783 5787 5792 5796 5800 5803 5807 5811 5815 5818 5821 5824 5827 5830 5832 5834 5837 5839 5840 5841 5842 5842 5842 5842 5842 5842 5841 5840 5839 5838 5837 5835 5833
5720 5725 5729 5734 5739 5744 5749 5755 5760 5766 5771 5776 5781 5786 5790 5794 5798 5803 5807 5811 5814 5817 5820 5823 5826 5828 5831 5833 5834 5835 5836 5837 5838 5838 5838 5837 5837 5836 5835 5834 5832 5831 5829
5701 5706 5711 5716 5723 5728 5733 5739 5746 5752 5758 5764 5769 5774 5779 5784 5789 5793 5798 5802 5806 5810 5813 5816 5819 5822 5824 5826 5828 5830 5831 5832 5832 5833 5833 5832 5832 5831 5830 5829 5828 5826 5824
5682 5686 5691 5697 5704 5710 5716 5722 5729 5737 5744 5750 5756 5762 5768 5773 5778 5783 5788 5792 5797 5802 5805 5808 5812 5814 5817 5820 5822 5823 5825 5826 5826 5827 5827 5827 5827 5826 5825 5824 5823 5821 5819
5663 5667 5672 5678 5685 5692 5698 5704 5712 5720 5728 5735 5742 5748 5755 5761 5767 5772 5777 5783 5788 5793 5797 5800 5803 5807 5810 5813 5815 5817 5818 5820 5820 5821 5821 5821 5821 5820 5820 5818 5817 5816 5814
5644 5648 5652 5659 5666 5673 5680 5686 5694 5702 5710 5718 5727 5734 5741 5748 5754 5761 5767 5772 5778 5783 5788 5791 5795 5799 5802 5805 5808 5810 5812 5813 5814 5815 5815 5815 5815 5815 5814 5813 5811 5810 5808
5625 5630 5634 5640 5647 5654 5661 5668 5676 5684 5692 5701 5710 5719 5727 5735 5742 5748 5755 5761 5767 5773 5778 5782 5786 5790 5794 5797 5800 5803 5805 5806 5807 5808 5809 5809 5809 5808 5808 5807 5805 5804 5802
5609 5613 5618 5623 5629 5636 5643 5650 5658 5667 5675 5684 5694 5702 5712 5720 5728 5735 5743 5750 5756 5762 5768 5773 5777 5781 5785 5789 5792 5795 5798 5799 5800 5801 5802 5802 5803 5802 5801 5800 5799 5797 5795
5595 5598 5602 5606 5612 5619 5626 5633 5641 5650 5659 5668 5677 5687 5696 5705 5714 5722 5730 5737 5744 5751 5757 5763 5767 5772 5776 5780 5784 5787 5789 5792 5793 5794 5795 5796 5796 5795 5795 5794 5792 5791 5788
5582 5584 5587 5591 5597 5603 5610 5618 5625 5634 5642 5652 5662 5671 5681 5690 5699 5708 5717 5725 5732 5739 5746 5752 5758 5762 5767 5771 5775 5778 5781 5784 5786 5787 5788 5789 5789 5789 5788 5787 5786 5784 5782
5569 5572 5574 5578 5583 5588 5594 5601 5609 5616 5625 5635 5644 5655 5666 5675 5685 5694 5704 5713 5721 5729 5736 5742 5748 5754 5758 5763 5767 5771 5774 5777 5779 5780 5781 5782 5782 5781 5781 5780 5778 5777 5775
5559 5560 5562 5565 5569 5574 5579 5585 5593 5600 5610 5620 5630 5641 5650 5660 5670 5681 5691 5700 5709 5717 5725 5731 5738 5744 5748 5753 5758 5763 5767 5769 5771 5772 5774 5774 5774 5774 5773 5773 5771 5770 5768
5550 5550 5551 5554 5557 5561 5566 5572 5579 5587 5596 5606 5616 5626 5635 5646 5656 5667 5678 5687 5697 5705 5714 5721 5728 5733 5739 5744 5749 5754 5757 5760 5762 5764 5766 5767 5767 5767 5766 5765 5764 5762 5760
5541 5540 5541 5543 5546 5550 5555 5560 5567 5575 5584 5593 5602 5611 5622 5633 5644 5654 5665 5675 5685 5693 5702 5710 5718 5724 5730 5735 5740 5745 5748 5751 5754 5756 5758 5759 5759 5759 5758 5757 5756 5755 5753
Wind_Speed
21 22 23 23 22 22 23 22 22 22 21 20 20 19 19 18 17 16 16 14 13 12 10 10 9 8 7 7 6 6 5 5 5 5 5 5 5 6 6 7 8 8 8
23 23 24 24 24 24 24 25 25 24 23 23 22 22 21 21 20 19 18 17 15 14 12 11 11 10 9 8 8 7 6 6 6 6 6 6 6 6 7 7 8 9 9
26 25 26 26 26 26 27 27 27 27 26 25 24 24 23 23 22 21 20 19 18 16 15 13 12 12 11 10 9 9 8 8 8 8 8 7 7 7 8 8 9 10 10
28 28 28 28 28 28 28 29 29 29 29 28 27 26 26 25 25 24 23 21 20 18 17 15 14 13 13 12 11 11 10 10 10 10 9 9 9 9 9 10 10 11 11
31 30 30 31 31 31 31 31 31 31 31 30 29 29 28 27 27 26 25 23 22 20 19 18 16 15 15 14 13 12 12 12 11 11 11 11 10 10 11 11 11 12 13
34 34 33 33 34 34 33 33 33 33 33 32 31 31 30 29 29 28 27 26 24 23 21 20 18 18 17 15 14 14 14 13 13 13 12 12 12 12 12 12 13 14 14
38 37 36 36 37 37 36 36 36 36 35 35 34 33 32 32 31 30 29 28 27 25 24 22 21 20 18 17 16 16 15 15 15 15 14 14 13 14 14 14 15 15 16
42 40 40 39 39 39 39 39 39 38 38 37 37 36 35 34 33 33 31 30 29 28 26 25 23 21 20 19 18 17 17 16 16 16 16 15 15 15 15 16 16 17 17
45 44 43 43 42 42 42 42 42 42 41 40 39 39 38 36 36 35 34 32 31 30 28 27 25 23 22 21 20 19 19 18 17 17 17 17 17 17 17 17 17 18 19
49 48 47 46 46 46 45 45 45 44 44 43 42 41 40 39 38 37 35 34 33 32 30 29 27 26 24 23 22 21 20 19 19 18 18 18 18 18 18 19 19 19 20
53 52 51 50 49 49 49 48 48 47 47 46 45 44 43 42 40 39 37 36 35 34 32 31 30 28 26 25 24 23 22 21 20 20 19 19 20 20 20 20 20 21 21
56 56 55 53 53 52 52 51 51 50 50 49 48 47 46 45 43 41 40 38 37 36 35 33 32 30 28 27 26 25 24 23 22 21 21 21 21 21 21 22 22 22 23
58 59 58 57 56 56 56 55 54 54 53 52 51 50 49 47 46 44 42 41 39 38 36 35 34 32 30 29 28 27 26 25 24 23 23 22 22 22 22 23 23 24 25
61 62 62 61 59 59 59 59 57 57 56 54 54 52 51 50 48 46 45 43 41 40 38 37 36 34 32 31 30 29 27 26 26 25 25 24 24 24 24 24 25 25 26
63 63 63 63 62 62 62 62 61 59 58 57 56 55 54 53 51 49 47 46 44 42 40 39 38 36 35 33 32 31 29 28 28 27 26 26 26 26 26 26 26 27 27
62 63 65 65 63 62 63 64 64 62 61 60 59 58 56 55 54 52 50 48 46 44 42 41 39 38 36 35 34 32 31 30 29 29 28 28 27 27 27 27 28 28 28
60 62 64 65 64 62 63 65 65 65 64 63 61 60 59 57 55 54 53 51 49 46 44 43 41 40 39 37 35 34 33 32 31 30 29 29 29 29 29 29 29 29 30
58 59 62 64 64 64 63 63 65 66 66 65 64 62 61 60 58 56 55 53 51 48 46 45 44 42 40 38 37 35 34 33 32 32 31 30 30 30 30 29 30 30 32
55 57 58 61 63 64 63 64 64 65 66 66 66 64 63 62 60 58 56 55 53 51 49 47 46 44 42 40 38 37 36 34 33 33 32 31 31 31 31 31 31 32 33
52 54 55 58 61 62 62 63 65 66 66 66 67 67 65 64 63 61 59 57 55 53 51 49 48 46 44 42 40 38 37 36 34 33 32 32 32 32 32 32 32 33 34
48 51 54 56 59 60 61 61 62 64 66 65 66 67 67 66 64 63 60 59 57 55 52 50 50 47 45 44 42 40 38 37 35 34 34 33 33 32 33 33 33 34 34
43 47 50 52 56 58 60 61 61 62 65 65 66 68 69 67 66 65 63 60 58 56 54 51 51 49 46 44 43 41 39 38 36 35 35 34 33 33 33 33 34 34 34
40 43 46 47 52 55 57 59 60 62 64 66 66 67 69 68 68 67 65 61 59 57 56 53 52 50 48 46 44 42 40 38 37 36 35 34 34 34 34 34 34 34 34
38 41 43 46 48 51 53 57 58 60 62 64 64 65 67 69 69 68 66 64 60 58 56 53 52 50 49 46 44 42 41 39 38 36 36 36 35 34 34 35 34 34 34
35 39 41 43 45 47 50 52 54 58 60 61 61 65 67 68 68 68 66 65 62 60 57 54 53 52 50 47 44 43 41 39 38 37 36 36 35 35 35 35 35 34 35
36 36 39 42 43 45 47 49 53 57 58 58 58 60 64 66 67 67 66 64 63 61 58 55 53 52 50 47 44 43 41 40 38 38 37 36 36 35 35 35 35 35 35
Wind_Direction
249 247 245 243 242 241 239 239 239 239 240 240 240 240 240 241 242 244 247 249 251 255 259 262 265 266 270 273 275 276 281 293 299 303 305 312 320 325 329 332 334 337 337
250 248 247 245 243 242 241 241 240 240 240 241 241 241 241 241 242 244 247 249 250 253 256 258 261 263 265 268 268 269 276 283 289 293 296 302 309 314 320 323 326 328 328
251 249 248 246 245 244 243 242 242 242 241 241 242 242 241 242 242 244 246 248 250 252 254 257 259 262 263 264 263 265 272 277 284 289 293 295 299 304 310 315 319 322 322
252 250 249 248 245 244 243 243 243 243 243 242 242 242 241 242 243 244 245 247 248 250 253 256 258 259 261 261 261 264 268 273 280 286 290 292 293 297 303 308 312 317 319
253 251 249 248 247 246 244 243 243 243 243 243 243 243 242 242 242 243 244 246 248 250 251 254 256 257 258 259 259 262 267 271 277 283 286 289 291 293 297 302 306 310 314
254 252 249 247 247 247 246 244 243 242 243 243 243 244 243 242 242 243 245 246 248 249 250 252 254 256 257 258 259 261 265 270 275 280 284 286 288 290 293 298 302 305 308
254 253 252 248 246 246 246 245 244 243 242 243 243 243 243 243 242 243 245 246 247 248 249 251 253 255 256 257 259 261 264 267 273 278 281 283 285 288 291 294 299 303 306
255 253 252 250 247 245 245 244 244 243 242 242 242 243 243 243 243 243 243 245 246 247 249 250 252 254 255 256 258 261 263 265 270 275 278 280 283 287 290 293 297 300 303
255 253 251 250 248 246 244 244 243 242 242 242 242 243 243 243 243 243 243 244 245 247 247 249 251 253 254 255 257 260 263 265 268 271 275 278 280 283 287 292 296 299 301
255 253 251 249 247 245 244 243 242 242 241 241 242 242 243 243 243 244 244 244 245 246 246 247 249 251 252 254 256 259 261 263 266 269 273 276 278 281 285 289 293 297 299
254 253 250 249 247 245 244 243 242 241 241 240 241 242 242 242 243 244 244 244 244 245 246 246 247 250 251 253 255 257 260 262 265 267 271 275 278 280 283 287 291 295 298
254 253 251 248 246 245 243 242 242 241 240 240 240 241 242 242 242 243 243 244 244 244 245 245 246 248 250 251 253 256 258 261 264 266 270 274 278 280 282 286 289 292 295
253 252 251 248 247 245 243 242 241 241 240 240 240 240 241 241 241 242 242 243 244 244 244 245 246 247 249 250 252 255 257 260 263 266 269 273 276 280 283 285 288 290 293
252 251 249 248 246 245 243 242 240 239 239 239 239 239 240 240 241 241 241 242 243 244 244 244 245 246 248 249 251 254 256 259 261 265 268 271 275 279 282 284 287 289 292
252 251 249 247 246 244 243 241 240 239 238 238 239 238 238 239 240 240 240 241 242 243 243 244 244 245 247 249 250 252 255 258 260 264 267 271 274 277 280 284 287 289 290
252 250 248 246 245 243 242 241 240 238 237 236 237 237 237 237 238 238 238 239 240 241 243 244 244 244 246 248 249 251 254 257 259 263 267 270 273 276 279 282 286 288 290
251 249 248 245 243 242 240 239 238 238 236 235 234 235 235 235 236 236 237 237 238 239 241 242 243 244 245 247 249 251 253 256 259 262 266 269 272 276 279 282 285 287 289
251 248 247 245 243 242 240 238 236 235 234 233 232 232 233 233 234 234 235 236 236 237 238 241 243 244 244 246 248 250 252 255 258 261 265 268 271 275 278 281 284 287 289
250 247 247 244 242 241 240 238 236 233 232 231 230 230 231 231 232 232 233 234 235 235 237 239 241 242 243 245 247 249 251 254 258 260 264 267 271 274 277 280 283 286 289
250 246 244 243 241 239 238 236 234 231 231 230 229 228 228 229 230 231 231 232 233 234 235 237 239 241 242 244 246 248 250 253 256 259 263 266 270 273 276 280 283 286 289
250 247 244 243 240 237 235 234 233 233 231 229 228 227 226 227 228 230 230 230 232 232 234 237 239 240 242 243 245 247 249 252 255 259 263 266 270 273 276 280 283 286 288
251 247 245 243 238 235 234 233 233 232 230 229 228 227 226 225 226 227 228 229 230 231 232 235 238 239 242 243 244 246 249 252 255 258 262 265 269 272 276 280 283 285 288
251 249 245 241 238 235 235 233 232 231 228 227 226 226 225 224 225 226 227 227 229 231 232 233 236 240 241 242 244 246 248 251 255 257 261 265 268 271 275 279 281 284 288
254 250 245 241 239 236 234 231 230 229 227 227 225 225 225 223 223 225 225 226 227 230 231 232 235 237 239 241 243 245 248 250 253 256 260 264 267 270 274 277 281 284 288
256 252 246 241 239 234 232 231 230 226 225 224 223 225 224 222 222 223 223 224 226 228 230 232 234 236 239 241 243 245 246 248 251 255 260 263 267 270 273 276 280 284 288
258 256 250 241 238 233 232 232 228 223 223 221 221 222 221 221 221 221 222 223 225 227 227 230 233 236 238 240 242 243 246 247 250 254 259 263 266 270 273 275 279 283 287